Location: Bakhuizen
(52.8696°N, 5.4575°E)
Time: 04:59:24
(UTC+00:00)

Nimbus 7 Rocket - Pass Details

Date: 03 October 2021
Orbit: 922 x 965 km, 99.4° (Epoch: 17 October)

Event Time Altitude Azimuth Distance (km) Brightness Sun altitude
Rises 00:21:49 0° 14° (NNE) 3,589 8.4 -39.8°
Reaches altitude 10° 00:24:18 10° 10° (N) 2,646 7.4 -39.7°
Enters shadow 00:27:11 29° 357° (N) 1,646 6.0 -39.6°
